Regional Weather Roundup
Issued by NWS

Home | Current Version | Previous Version | Graphics & Text | Print | Product List | Glossary On
Versions: 1 2 3 4 5 6 7 8 9 10 11 12 13 14 15 16 17 18 19 20 21 22 23 24 25 26 27 28 29 30 31 32 33 34 35 36 37 38 39 40 41 42 43 44 45 46 47 48 49 50
202
ASUS44 KLIX 281101
RWRLA
LOUISIANA WEATHER ROUNDUP
NATIONAL WEATHER SERVICE NEW ORLEANS LA
600 AM CDT MON JUL 28 2014

NOTE: "FAIR" INDICATES FEW OR NO CLOUDS BELOW 12,000 FEET WITH NO
      SIGNIFICANT WEATHER AND/OR OBSTRUCTIONS TO VISIBILITY.
      SKY/WX - SKY CONDITION AND SIGNIFICANT WEATHER.
      TMP - AIR TEMPERATURE.    DP   - DEWPOINT TEMPERATURE.
      RH  - RELATIVE HUMIDITY.  PRES - PRESSURE.
      HX  - HEAT INDEX.         WCI  - WIND CHILL INDEX.

*  THESE STATIONS ARE NOT NWS OR FAA STATIONS AND ARE NOT UNDER
   NWS QUALITY CONTROL.

LAZ040-048-061>063-065-066-069-281200-
SOUTHEAST LOUISIANA

CITY           SKY/WX    TMP DP  RH WIND       PRES   REMARKS
N.O. AUDUBON   NOT AVBL
N.O. INTL ARPT MOCLDY    79  76  90 W9        30.07R
N.O. LAKEFRONT MOCLDY    83  77  82 W18       30.07R
N.O. DOWNTOWN* CLOUDY    81  73  78 CALM      30.07R
SLIDELL        PTCLDY    80  75  84 VRB3      30.05R
BATON ROUGE    CLEAR     77  75  93 SW5       30.07R
BOOTHVILLE     PTCLDY    83  77  82 W8        30.06R
BELLE CHASSE   MOCLDY    80  75  84 W5        30.06R
BOGALUSA*      FAIR      79  74  85 W3        30.06S
GALLIANO*      NOT AVBL
NEW ROADS*     FAIR      76  74  96 CALM      30.06R
GONZALES*      FAIR      78  78  99 CALM      30.07R
HAMMOND*       CLEAR     77  73  88 CALM      30.08R
HOUMA*         CLEAR     79  73  83 CALM      30.07R
PORT FOURCHON* MOSUNNY   84  77  79 W13       30.08R

$$

LAZ041-044-053-054-281200-
SOUTHWEST LOUISIANA

CITY           SKY/WX    TMP DP  RH WIND       PRES   REMARKS
LAKE CHARLES   CLEAR     79  76  90 SW3       30.06S
LAFAYETTE      CLEAR     79  76  90 W5        30.07R
PATTERSON      CLEAR     79  75  89 NW5       30.11R
SALT POINT       N/A     86  76  71 VRB5      30.06R HX  96
NEW IBERIA     CLEAR     78  76  93 CALM      30.08R
CHENAULT AIRPK NOT AVBL

$$

LAZ027-028-281200-
CENTRAL LOUISIANA

CITY           SKY/WX    TMP DP  RH WIND       PRES   REMARKS
FORT POLK      PTCLDY    77  75  93 W3        30.08R
ALEXANDRIA INT PTCLDY    76  75  97 SW5       30.04R
ALEXANDRIA     PTCLDY    79  75  87 W7        30.05R

$$

LAZ001-002-281200-
NORTHWEST LOUISIANA

CITY           SKY/WX    TMP DP  RH WIND       PRES   REMARKS
SHREVEPORT     PTCLDY    78  74  87 W7        30.04R
BARKSDALE AFB  CLEAR     80  74  81 W7        30.04R
DTN SHREVEPORT CLEAR     80  74  81 SW7       30.04R

$$

LAZ014-016-281200-
NORTHEAST LOUISIANA

CITY           SKY/WX    TMP DP  RH WIND       PRES   REMARKS
MONROE         PTCLDY    80  74  81 W8        30.03R
TALLULAH       CLEAR     78  75  90 VRB5      30.02R

$$




USA.gov is the U.S. government's official web portal to all federal, state and local government web resources and services.